DECAYED

ELECTRON R/B, 64626 (Decayed)

Orbit data source: Space-Track

ELECTRON R/B, 64626 was space debris in SSO originally from a launch on Thu, 26 Jun 2025 UTC launched from the Rocket Lab Launch Complex (RLLC). Debris objects in space refer to the collection of defunct objects orbiting the Earth. Examples of debris include non-operational satellites, rocket bodies, and fragments generated from explosions, collisions, or faulty payload assembly.

Not visible in the next 10 days
Identifier
64626, 2025-138F
Orbit
Decayed
Country
Flag of USUS
Related business
Manufacturer
Rocket Lab
Mission
Decayed spacecraft
Bus & Motor
ELECTRON ST2, Unknown motor
Mass
250 kg wet, ~250 kg dry
Launch date (UTC)
2025-06-26 (1 year ago)
Launch vehicle
Unknown
Launch site
Rocket Lab Launch Complex (RLLC)
Object type
Payload
Rocket body
Debris
Shape & HBR
Cyl, Unknown HBR
Radar Cross Section
2.827 m², Large (>1 m²)

Expand to show TLE details & history
Last TLE update: 1 year ago

TLE from 1 year ago
0 ELECTRON R/B
1 64626U 25138F   25181.60997256  .03297959  24869-5  12609-2 0  9992
2 64626  97.4237 186.5515 0179629  21.1293 339.7765 15.96552279   608
Epoch: 2025-06-30T14:38Z
TLE epoch observation values (Epoch: 2025-06-30T14:38:21.629Z)
Latitude
0.04997°
Longitude
48.03759°
Altitude
175.123 km
Speed
7.866 km/s
True Right ascension
12h 26m 10s
True Declination
0° 02' 59"
Sunlit
Object was in daylight at epoch
Visualization orbit readout
Latitude
Unknown
Longitude
Unknown
Altitude
Unknown
Speed
Unknown
Apparent Right ascension
Unknown
Apparent Declination
Unknown
Sunlit
N/A
Visualization observer readout
Local Sidereal Time
07:20:40
Azimuth
Unknown
Elevation
Unknown
Doppler factor
Unknown
Orbital elements
Apogee altitude
400.471 km
Perigee altitude
161.242 km
Semi-major axis
6,658.993 km
Eccentricity
0.01796
Inclination
97.4237°
RAAN
186.5515°
Arg. of periapsis
21.1293°
True anomaly
339.04967°
Mean anomaly
339.7765°
Eccentric anomaly
339.41463°
Mean motion
3.9942 °/min
Orbital period
90.13 mins
BSTAR
0.0012609
Loading maneuver chart data...
Computing Atmospheric mass density...
Loading historical data...
Loading historical data...
Loading historical data...
Loading historical data...
Loading historical data...
Loading historical data...
Loading historical data...

Documentation

Showing up to 5 results
|